Content
SEND FEEDBACK

Daily
Averages
Monthly
Summary
United States of America

CARY, NORTH CAROLINA


Home > North America > United States > North Carolina
Elevation: 117 meters     Latitude: 35 44N     Longitude: 078 41W

WEATHER
 
SELECT A DAY
Number of Records: 196,824;   Date Range: 1/1/95 - 11/26/14
 
SHARE

PRINT THIS DATA

[ ← Previous Day ]
WEATHER ALMANAC - 16 MARCH, 2013
[ Next Day → ]
[ °F ]   °C
Weather ElementAverageHighLow
Temperature17.2 °C25 °C (4:51 pm)8.3 °C (5:51 am)
Dewpoint6 °C9.4 °C (11:51 pm)1.7 °C (2:51 am)
Humidity49.6 %66 % (5:51 am)32 % (4:51 pm)
Barometer1008.5 hPa1011.2 hPa (2:51 am)1004.7 hPa (5:51 pm)
Wind Speed17.7 km/h31.5 km/h (2:51 pm)
Wind Gust50.1 km/h (4:51 pm)
Weather ElementAverage
Visibility16.1 km
Wind DirectionSW (223.2 °)

Weather ElementTotal
Precipitation---
Heating Degree Days1.7 (Base 18.3)
Growing Degree Days6.7 (Base 10)
Averaged from 22 records on 16 March, 2013
WEATHER CONDITIONS BREAKOUT
WIND DIRECTION BREAKOUT
WEATHER BY HOUR - 16 MARCH, 2013
[ °F ]   °C
Local TimeTemperatureDewpointHumidityBarometerVisibilityWind DirectionWind SpeedGust SpeedPrecipitationEventsConditions
2:51 AM10 °C1.7 °C57 %1011.2 hPa16.1 kmSW (220°)11.1 km/hScattered Clouds
3:51 AM10 °C2 °C58 %1010.5 hPa16.1 kmSW (220°)13 km/hMostly Cloudy
4:51 AM8.9 °C2.2 °C63 %1010.2 hPa16.1 kmSW (220°)13 km/hScattered Clouds
5:51 AM8.3 °C2.2 °C66 %1010.2 hPa16.1 kmSW (220°)11.1 km/hScattered Clouds
6:51 AM9.4 °C3.3 °C66 %1010.5 hPa16.1 kmSW (220°)11.1 km/hMostly Cloudy
7:51 AM11.1 °C3.9 °C61 %1010.5 hPa16.1 kmSW (220°)13 km/hOvercast
8:51 AM13 °C5 °C58 %1010.2 hPa16.1 kmSW (230°)16.7 km/hOvercast
9:51 AM13.9 °C5.6 °C57 %1010.5 hPa16.1 kmSW (230°)16.7 km/hOvercast
10:51 AM15 °C6.7 °C58 %1009.8 hPa16.1 kmSW (230°)22.2 km/hOvercast
11:51 AM17.2 °C7.2 °C52 %1009.1 hPa16.1 kmSW (220°)24.1 km/hMostly Cloudy
12:51 PM20 °C7.8 °C45 %1008.5 hPa16.1 kmSW (220°)27.8 km/hMostly Cloudy
1:51 PM22.8 °C7.8 °C38 %1007.5 hPa16.1 kmWSW (240°)25.9 km/h44.4 km/hMostly Cloudy
2:51 PM23.9 °C7.8 °C36 %1006.4 hPa16.1 kmSW (230°)31.5 km/h46.3 km/hMostly Cloudy
3:51 PM24.4 °C8.3 °C36 %1005.4 hPa16.1 kmSW (230°)25.9 km/h38.9 km/hOvercast
4:51 PM25 °C7.2 °C32 %1005.1 hPa16.1 kmWSW (240°)27.8 km/h50.1 km/hOvercast
5:51 PM24 °C7 °C34 %1004.7 hPa16.1 kmWSW (240°)29.6 km/h46.3 km/hOvercast
6:51 PM22.8 °C6.7 °C35 %1004.7 hPa16.1 kmWSW (240°)24.1 km/h40.7 km/hOvercast
7:51 PM22.2 °C6.7 °C37 %1005.4 hPa16.1 kmWSW (240°)16.7 km/hOvercast
8:51 PM21.7 °C6.7 °C38 %1008.1 hPa16.1 kmNW (310°)9.3 km/hOvercast
9:51 PM20.6 °C7.8 °C44 %1009.5 hPa16.1 kmCalmOvercast
10:51 PM17.2 °C8.9 °C58 %1010.2 hPa16.1 kmWSW (250°)9.3 km/hScattered Clouds
11:51 PM16.7 °C9.4 °C62 %1010.2 hPa16.1 kmWSW (240°)9.3 km/hMostly Cloudy
Hourly data recorded from KRDU, located 0 kilometers away from Cary, North Carolina







STORIES FROM OUR PARTNERS